Weather Roundup
Issued by NWS Chicago, IL

Home | Current Version | Previous Version | Graphics & Text | Print | Product List | Glossary On
Versions: 1 2 3 4 5 6 7 8 9 10 11 12 13 14 15 16 17 18 19 20 21 22 23 24 25 26 27 28 29 30 31 32 33 34 35 36 37 38 39 40 41 42 43 44 45 46 47 48 49 50
000
NZUS59 KLOT 240803
HRRLOT

CHICAGO AREA WEATHER ROUNDUP
NATIONAL WEATHER SERVICE CHICAGO/ROMEOVILLE IL
200 AM CST FRI FEB 24 2017

NOTE: "FAIR" INDICATES FEW OR NO CLOUDS BELOW 12,000 FEET WITH NO
SIGNIFICANT WEATHER AND/OR OBSTRUCTIONS TO VISIBILITY.

* THESE STATIONS ARE NOT UNDER NWS QUALITY CONTROL. THEY ALSO MAY NOT
  REPORT WEATHER SUCH AS PRECIPITATION OR FOG.

ILZ005-006-012>014-019>023-240900-
NORTHEAST ILLINOIS

CITY           SKY/WX    TMP DP  RH WIND       PRES   REMARKS
OHARE          LGT RAIN  40  37  89 NE15G22   29.59F
MIDWAY         CLOUDY    41  38  89 NE9       29.59F
AURORA         CLOUDY    41  38  89 NE15G23   29.55F
LANSING*       CLOUDY    40  40 100 N12       29.58F FOG
JOLIET*        CLOUDY    43  42  97 NE6       29.57F FOG
WAUKEGAN       LGT RAIN  36  35  96 NE17G29   29.63R
DUPAGE AIRPORT CLOUDY    39  35  86 NE16      29.58F
WHEELING       LGT RAIN  37  36  96 NE15      29.62F
KANKAKEE*      PTCLDY    51  50  98 SE9       29.53R
MORRIS*        CLOUDY    42  41  95 NE6       29.55S FOG
LEWIS AIRPORT* CLOUDY    41  41 100 NE13      29.57S
NORTHERLY ISL    N/A     38  37  97 N16         N/A
$$

WIZ051-052-058>065-066-070>072-240900-
SOUTHEAST WISCONSIN

CITY           SKY/WX    TMP DP  RH WIND       PRES   REMARKS
MILWAUKEE      TSTM      36  33  89 NE24G30   29.67F FOG
KENOSHA*       LGT RAIN  36  34  92 NE18      29.64S
RACINE*        TSTM      36  34  92 NE20G26   29.67F FOG
WAUKESHA       RAIN      32  32 100 NE15G24   29.68R WCI  22
WEST BEND      RAIN      32  32 100 NE20G31   29.70F WCI  20
$$

INZ001>003-010>013-019-020-240900-
NORTHWEST INDIANA

CITY           SKY/WX    TMP DP  RH WIND       PRES   REMARKS
GARY*          CLOUDY    41  41  98 N7        29.59F FOG
MICHIGAN CITY* NOT AVBL
RENSSELAER*    NOT AVBL
VALPARAISO     LGT RAIN  50  49  96 E12       29.56F FOG
$$

LMZ740>746-240900-
SOUTHERN LAKE MICHIGAN

STATION/POSITION TIME  SKY/WX   TEMP WIND        PRES    VSBY
                                AIR  DIR/SP/G
                 (UTC)          (F)  (DEG/KT/KT) (MB)    (MI)
HARRISON CRIB    0740            39   30/ 21/ 22   N/A
BURNHAM HARBOR   0800            39   20/  6/ 17   N/A
CALUMET HARBOR   0730            38  360/  9/ 13 1001.8F
BURNS HARBOR     0740            38   10/  4/  5 1002.4F
MICHIGAN CITY    0740            51  130/  8/ 11   N/A
$$

ABBREVIATIONS USED IN REMARKS
   TC - TEMPERATURE IN CELSIUS
  WCI - WIND CHILL INDEX
   HX - HEAT INDEX
  VSB - VISIBILITY
$$




USA.gov is the U.S. government's official web portal to all federal, state and local government web resources and services.